Regional Weather Roundup
Issued by NWS

Home | Current Version | Previous Version | Text Only | Print | Product List | Glossary On
Versions: 1 2 3 4 5 6 7 8 9 10 11 12 13 14 15 16 17 18 19 20 21 22 23 24 25 26 27 28 29 30 31 32 33 34 35 36 37 38 39 40 41 42 43 44 45 46 47 48 49 50
000
ASUS44 KBMX 290910
RWRAL

ALABAMA REGIONAL WEATHER ROUNDUP
NATIONAL WEATHER SERVICE BIRMINGHAM AL
400 AM CDT SUN MAR 29 2015

NOTE: "FAIR" INDICATES FEW OR NO CLOUDS BELOW 12,000 FEET
WITH NO SIGNIFICANT WEATHER AND/OR OBSTRUCTIONS TO VISIBILITY.

THE REMARK "TC" DENOTES TEMPERATURE IN DEGREES CELSIUS.

ALZ001>011-014-016>018-020-291000-
NORTH ALABAMA

CITY           SKY/WX    TMP DP  RH WIND       PRES   REMARKS
MUSCLE SHOALS  CLEAR     30  24  78 E3        30.32F
HUNTSVILLE     CLEAR     30  25  81 SE3       30.32S
DECATUR        CLEAR     27  22  81 CALM      30.33S
HALEYVILLE     FAIR      28  27  96 CALM      30.31F
GADSDEN        CLEAR     27  21  80 CALM      30.31S
$$

ALZ012-013-022-023-030>036-040>044-291000-
WEST CENTRAL ALABAMA

CITY           SKY/WX    TMP DP  RH WIND       PRES   REMARKS
TUSCALOOSA     CLOUDY    44  32  62 NE3       30.33S
$$

ALZ015-024>027-033>036-040>044-291000-
CENTRAL ALABAMA

CITY           SKY/WX    TMP DP  RH WIND       PRES   REMARKS
BIRMINGHAM     PTCLDY    38  18  44 E5        30.33R WCI  34
MONTGOMERY     CLOUDY    48  32  53 N5        30.33R
SHELBY CO ARPT CLOUDY    43  21  41 VRB3      30.32R
MAXWELL AFB    CLOUDY    47  31  53 NE5       30.32R
GREENVILLE     CLOUDY    45  32  60 CALM      30.30R
$$

ALZ019-021-028-029-037-038-045>048-291000-
EAST CENTRAL ALABAMA

CITY           SKY/WX    TMP DP  RH WIND       PRES   REMARKS
ANNISTON       CLEAR     31  26  82 E3        30.33R
ALEXANDER CITY CLOUDY    38  31  76 CALM      30.32R
AUBURN         MOCLDY    36  18  48 NE8       30.33S WCI  29
$$

ALZ051>064-291000-
SOUTHWEST ALABAMA

CITY           SKY/WX    TMP DP  RH WIND       PRES   REMARKS
MOBILE         CLEAR     43  33  68 NE7       30.28S
BROOKLEY FIELD CLEAR     48  33  56 NE10      30.30S
EVERGREEN      CLOUDY    39  36  89 CALM      30.32S
$$

ALZ049-050-065>069-291000-
SOUTHEAST ALABAMA

CITY           SKY/WX    TMP DP  RH WIND       PRES   REMARKS
DOTHAN         CLOUDY    46  32  58 N3        30.33R
OZARK          CLOUDY    44  32  62 NW2       30.30S
TROY           CLOUDY    45  34  65 NE3       30.31S
EUFAULA        CLOUDY    46  27  47 CALM      30.31R
$$



USA.gov is the U.S. government's official web portal to all federal, state and local government web resources and services.